• In Netherlands
  • List of Countries
  • For 7 days
  • Water Temperature
  • Satellite Maps
  • Weather Map
  • Weather Widgets
  • user-avatar
    Login

    Hourly Weather Hannover

    Today, 20 February, Tuesday

    Time Temperature Precipitation Wind Pressure Humidity
    00:00 +1°C° 0 mm 1 mps 758 mmHg 80%
    01:00 0°C° 0 mm 1 mps 758 mmHg 81%
    02:00 0°C° 0 mm 1 mps 758 mmHg 82%
    03:00 0°C° 0 mm 1 mps 758 mmHg 82%
    04:00 0°C° 0 mm 1 mps 758 mmHg 83%
    05:00 0°C° 0 mm 1 mps 758 mmHg 84%
    06:00 0°C° 0 mm 1 mps 758 mmHg 85%
    07:00 -1°C° 0 mm 1 mps 758 mmHg 87%
    08:00 -2°C° 0 mm 2 mps 758 mmHg 81%
    09:00 -1°C° 0 mm 2 mps 758 mmHg 76%
    10:00 +1°C° 0 mm 2 mps 758 mmHg 70%
    11:00 +2°C° 0 mm 2 mps 758 mmHg 65%
    12:00 +2°C° 0 mm 3 mps 758 mmHg 61%
    13:00 +3°C° 0 mm 3 mps 759 mmHg 58%
    14:00 +3°C° 0 mm 3 mps 759 mmHg 58%
    15:00 +2°C° 0 mm 3 mps 759 mmHg 59%
    16:00 +2°C° 0 mm 3 mps 759 mmHg 59%
    17:00 +1°C° 0 mm 3 mps 759 mmHg 65%
    18:00 0°C° 0 mm 3 mps 759 mmHg 72%
    19:00 -2°C° 0 mm 2 mps 760 mmHg 78%
    20:00 -2°C° 0 mm 2 mps 760 mmHg 80%
    21:00 -2°C° 0 mm 2 mps 761 mmHg 82%
    22:00 -3°C° 0 mm 2 mps 761 mmHg 84%
    23:00 -3°C° 0 mm 2 mps 762 mmHg 84%

    Tomorrow, 21 February, Wednesday

    Time Temperature Precipitation Wind Pressure Humidity
    00:00 -3°C° 0 mm 2 mps 762 mmHg 85%
    01:00 -3°C° 0 mm 2 mps 762 mmHg 85%
    02:00 -3°C° 0 mm 2 mps 762 mmHg 85%
    03:00 -3°C° 0 mm 2 mps 763 mmHg 85%
    04:00 -3°C° 0 mm 2 mps 763 mmHg 85%
    05:00 -3°C° 0 mm 2 mps 763 mmHg 84%
    06:00 -3°C° 0 mm 2 mps 763 mmHg 84%
    07:00 -3°C° 0 mm 2 mps 763 mmHg 84%
    08:00 -3°C° 0 mm 2 mps 763 mmHg 78%
    09:00 -2°C° 0 mm 2 mps 763 mmHg 73%
    10:00 -1°C° 0 mm 2 mps 763 mmHg 68%
    11:00 +1°C° 0 mm 2 mps 763 mmHg 63%
    12:00 +1°C° 0 mm 3 mps 763 mmHg 58%
    13:00 +2°C° 0 mm 3 mps 763 mmHg 54%
    14:00 +2°C° 0 mm 3 mps 763 mmHg 54%
    15:00 +2°C° 0 mm 3 mps 763 mmHg 55%
    16:00 +2°C° 0 mm 3 mps 763 mmHg 55%
    17:00 +1°C° 0 mm 3 mps 763 mmHg 61%
    18:00 +1°C° 0 mm 2 mps 763 mmHg 66%
    19:00 -2°C° 0 mm 2 mps 763 mmHg 71%
    20:00 -2°C° 0 mm 2 mps 763 mmHg 73%
    21:00 -2°C° 0 mm 2 mps 763 mmHg 74%
    22:00 -3°C° 0 mm 2 mps 764 mmHg 75%
    23:00 -3°C° 0 mm 2 mps 764 mmHg 76%

    Day after tomorrow, 22 February, Thursday

    Time Temperature Precipitation Wind Pressure Humidity
    00:00 -3°C° 0 mm 2 mps 764 mmHg 77%
    01:00 -3°C° 0 mm 2 mps 764 mmHg 77%
    02:00 -3°C° 0 mm 2 mps 764 mmHg 77%
    03:00 -3°C° 0 mm 2 mps 764 mmHg 77%
    04:00 -4°C° 0 mm 2 mps 764 mmHg 77%
    05:00 -4°C° 0 mm 2 mps 763 mmHg 77%
    06:00 -4°C° 0 mm 2 mps 763 mmHg 76%
    07:00 -4°C° 0 mm 2 mps 763 mmHg 76%
    08:00 -3°C° 0 mm 2 mps 764 mmHg 70%
    09:00 -2°C° 0 mm 2 mps 764 mmHg 65%
    10:00 -1°C° 0 mm 3 mps 764 mmHg 59%
    11:00 0°C° 0 mm 3 mps 764 mmHg 58%
    12:00 +1°C° 0 mm 3 mps 763 mmHg 56%
    13:00 +1°C° 0 mm 4 mps 763 mmHg 54%
    14:00 +1°C° 0 mm 4 mps 763 mmHg 56%
    15:00 +1°C° 0 mm 4 mps 763 mmHg 58%
    16:00 0°C° 0 mm 4 mps 762 mmHg 59%
    17:00 -1°C° 0 mm 4 mps 763 mmHg 62%
    18:00 -2°C° 0 mm 4 mps 763 mmHg 66%
    19:00 -2°C° 0 mm 3 mps 763 mmHg 69%
    20:00 -2°C° 0 mm 3 mps 763 mmHg 70%
    21:00 -2°C° 0 mm 3 mps 763 mmHg 72%
    22:00 -4°C° 0 mm 3 mps 763 mmHg 73%
    23:00 -4°C° 0 mm 3 mps 763 mmHg 76%

    23 February, Friday

    Time Temperature Precipitation Wind Pressure Humidity
    00:00 -4°C° 0 mm 3 mps 763 mmHg 78%
    01:00 -5°C° 0 mm 3 mps 763 mmHg 81%
    02:00 -5°C° 0 mm 3 mps 763 mmHg 81%
    03:00 -5°C° 0 mm 3 mps 763 mmHg 80%
    04:00 -5°C° 0 mm 3 mps 763 mmHg 80%
    05:00 -5°C° 0 mm 3 mps 764 mmHg 79%
    06:00 -5°C° 0 mm 3 mps 764 mmHg 78%
    07:00 -5°C° 0 mm 3 mps 764 mmHg 77%
    08:00 -4°C° 0 mm 4 mps 764 mmHg 71%
    09:00 -4°C° 0 mm 4 mps 764 mmHg 65%
    10:00 -4°C° 0 mm 5 mps 764 mmHg 59%
    11:00 -2°C° 0 mm 5 mps 764 mmHg 54%
    12:00 -1°C° 0 mm 5 mps 764 mmHg 50%
    13:00 0°C° 0 mm 5 mps 764 mmHg 45%
    14:00 0°C° 0 mm 5 mps 764 mmHg 44%
    15:00 0°C° 0 mm 5 mps 764 mmHg 43%
    16:00 0°C° 0 mm 5 mps 764 mmHg 42%
    17:00 -1°C° 0 mm 5 mps 764 mmHg 46%
    18:00 -2°C° 0 mm 5 mps 764 mmHg 50%
    19:00 -4°C° 0 mm 5 mps 764 mmHg 53%
    20:00 -4°C° 0 mm 5 mps 765 mmHg 54%
    21:00 -5°C° 0 mm 5 mps 765 mmHg 55%
    22:00 -5°C° 0 mm 5 mps 765 mmHg 57%
    23:00 -5°C° 0 mm 5 mps 765 mmHg 57%

    24 February, Saturday

    Time Temperature Precipitation Wind Pressure Humidity
    00:00 -5°C° 0 mm 5 mps 766 mmHg 58%
    01:00 -6°C° 0 mm 5 mps 766 mmHg 58%
    02:00 -6°C° 0 mm 5 mps 766 mmHg 57%
    03:00 -6°C° 0 mm 5 mps 766 mmHg 56%
    04:00 -6°C° 0 mm 5 mps 766 mmHg 54%
    05:00 -6°C° 0 mm 6 mps 766 mmHg 53%
    06:00 -6°C° 0 mm 6 mps 766 mmHg 51%
    07:00 -6°C° 0 mm 6 mps 766 mmHg 50%
    08:00 -6°C° 0 mm 7 mps 766 mmHg 46%
    09:00 -6°C° 0 mm 7 mps 767 mmHg 42%
    10:00 -5°C° 0 mm 8 mps 767 mmHg 38%
    11:00 -4°C° 0 mm 8 mps 767 mmHg 37%
    12:00 -2°C° 0 mm 8 mps 767 mmHg 36%
    13:00 -2°C° 0 mm 8 mps 767 mmHg 36%
    14:00 -2°C° 0 mm 8 mps 767 mmHg 36%
    15:00 -2°C° 0 mm 7 mps 767 mmHg 36%
    16:00 -2°C° 0 mm 7 mps 766 mmHg 35%
    17:00 -3°C° 0 mm 7 mps 767 mmHg 40%
    18:00 -4°C° 0 mm 6 mps 767 mmHg 44%
    19:00 -5°C° 0 mm 6 mps 767 mmHg 48%
    20:00 -5°C° 0 mm 6 mps 768 mmHg 50%
    21:00 -6°C° 0 mm 6 mps 768 mmHg 52%
    22:00 -6°C° 0 mm 6 mps 768 mmHg 54%
    23:00 -6°C° 0 mm 6 mps 769 mmHg 54%

    25 February, Sunday

    Time Temperature Precipitation Wind Pressure Humidity
    00:00 -8°C° 0 mm 6 mps 769 mmHg 54%
    01:00 -8°C° 0 mm 6 mps 769 mmHg 54%
    02:00 -9°C° 0 mm 6 mps 769 mmHg 51%
    03:00 -9°C° 0 mm 6 mps 769 mmHg 49%
    04:00 -9°C° 0 mm 6 mps 769 mmHg 46%
    05:00 -10°C° 0 mm 6 mps 769 mmHg 46%
    06:00 -10°C° 0 mm 6 mps 769 mmHg 47%
    07:00 -10°C° 0 mm 6 mps 769 mmHg 47%
    08:00 -10°C° 0 mm 6 mps 770 mmHg 45%
    09:00 -9°C° 0 mm 6 mps 770 mmHg 42%
    10:00 -9°C° 0 mm 6 mps 770 mmHg 39%
    11:00 -8°C° 0 mm 6 mps 770 mmHg 36%
    12:00 -6°C° 0 mm 6 mps 769 mmHg 33%
    13:00 -5°C° 0 mm 6 mps 769 mmHg 30%
    14:00 -5°C° 0 mm 6 mps 769 mmHg 30%
    15:00 -5°C° 0 mm 6 mps 769 mmHg 30%
    16:00 -5°C° 0 mm 6 mps 769 mmHg 30%
    17:00 -6°C° 0 mm 5 mps 769 mmHg 33%
    18:00 -6°C° 0 mm 5 mps 769 mmHg 36%
    19:00 -7°C° 0 mm 4 mps 769 mmHg 39%
    20:00 -7°C° 0 mm 4 mps 769 mmHg 40%
    21:00 -8°C° 0 mm 4 mps 770 mmHg 42%
    22:00 -8°C° 0 mm 4 mps 770 mmHg 43%
    23:00 -8°C° 0 mm 4 mps 770 mmHg 45%
    Show more